Location: Sobotiste
(48.7170°N, 17.4000°E)
Time: 12:49:03
(UTC+02:00)

OTV 5 (USA 277) - Visible Passes

Search period start: 19 June 2018 00:00
Search period end: 29 June 2018 00:00
Orbit: 313 x 320 km, 54.5° (Epoch: 18 June)

Date Brightness Start Highest point End Pass type
(mag) Time Alt. Az. Time Alt. Az. Time Alt. Az.
19 Jun ? 00:31:58 10° NW 00:34:13 23° N 00:36:28 10° ENE visible
19 Jun ? 02:06:19 10° NW 02:08:57 46° NNE 02:11:36 10° E visible
19 Jun ? 03:40:51 10° W 03:43:09 24° SW 03:45:26 10° SSE visible
19 Jun ? 21:36:46 10° WSW 21:39:27 86° NNW 21:42:10 10° ENE visible
19 Jun ? 23:11:42 10° WNW 23:14:03 25° N 23:16:23 10° NE visible
20 Jun ? 00:46:32 10° NW 00:48:54 26° N 00:51:16 10° ENE visible
20 Jun ? 02:20:45 10° WNW 02:23:28 87° SSW 02:26:11 10° ESE visible
20 Jun ? 03:56:25 10° WSW 03:57:21 11° SW 03:58:17 10° SSW visible
20 Jun ? 21:51:22 10° W 21:53:58 44° NNW 21:56:35 10° NE visible
20 Jun ? 23:26:29 10° WNW 23:28:44 22° N 23:30:58 10° NE visible
21 Jun ? 01:00:59 10° NW 01:03:32 36° NNE 01:06:05 10° E visible
21 Jun ? 02:35:18 10° WNW 02:37:41 37° SW 02:37:41 37° SW visible
21 Jun ? 22:06:09 10° WNW 22:08:35 29° NNW 22:11:01 10° NE visible
21 Jun ? 23:41:08 10° NW 23:43:25 24° N 23:45:43 10° ENE visible
22 Jun ? 01:15:23 10° WNW 01:18:05 64° NNE 01:18:52 39° E visible
22 Jun ? 22:20:58 10° WNW 22:23:15 23° N 22:25:31 10° NE visible
22 Jun ? 23:55:38 10° NW 23:58:05 29° NNE 00:00:32 10° E visible
23 Jun ? 01:29:52 10° WNW 01:31:35 33° W 01:31:35 33° W visible
23 Jun ? 22:35:42 10° NW 22:37:56 23° N 22:40:11 10° ENE visible
24 Jun ? 00:10:03 10° NW 00:12:41 46° NNE 00:13:48 27° E visible
24 Jun ? 01:44:33 10° W 01:44:38 10° W 01:44:38 10° W visible
24 Jun ? 22:50:16 10° NW 22:52:37 26° N 22:54:58 10° ENE visible
25 Jun ? 00:24:28 10° WNW 00:27:01 77° WNW 00:27:01 77° WNW visible
25 Jun ? 23:04:42 10° NW 23:07:16 35° NNE 23:09:31 12° E visible
26 Jun ? 00:39:02 10° WNW 00:40:21 23° W 00:40:21 23° W visible
26 Jun ? 21:44:51 10° NW 21:47:08 23° N 21:49:25 10° ENE visible
26 Jun ? 23:19:07 10° WNW 23:21:49 63° NNE 23:22:55 30° E visible
27 Jun ? 21:59:22 10° NW 22:01:48 29° NNE 22:04:15 10° E visible
27 Jun ? 23:33:35 10° WNW 23:36:16 59° SW 23:36:23 58° SSW visible
28 Jun ? 22:13:46 10° NW 22:16:24 45° NNE 22:19:01 10° E visible
28 Jun ? 23:48:17 10° W 23:49:55 22° WSW 23:49:55 22° WSW visible
